Terminal Aerodrome Forecast
Issued by NWS Dallas/Fort Worth, TX

Home | Current Version | Previous Version | Text Only | Print | Product List | Glossary On
Versions: 1 2 3 4 5 6 7 8 9 10 11 12 13 14 15 16 17 18 19 20 21 22 23 24 25 26 27 28 29 30 31
000
FTUS44 KFWD 300907 AAA
TAFDFW
TAF AMD
KDFW 300907Z 3009/0112 25016KT P6SM -SHRA SCT020 BKN100
     FM301100 27015KT P6SM FEW020 BKN100
     FM301500 27020G30KT P6SM FEW030 SCT150
     FM301600 28022G32KT P6SM BKN050
     FM302000 28025G35KT P6SM SCT250
     FM010000 29015G25KT P6SM FEW250
     FM010200 30010KT P6SM SKC=

USA.gov is the U.S. government's official web portal to all federal, state and local government web resources and services.